www.pogodaiklimat.ru
ПОГОДА во Вране
Время
(UTC), дата
05 4.08
06 4.08
07 4.08
08 4.08
09 4.08
11 4.08
10 4.08
12 4.08
13 4.08
14 4.08
15 4.08
17 4.08
16 4.08
18 4.08
19 4.08
20 4.08
21 4.08
23 4.08
22 4.08
00 5.08
01 5.08
02 5.08
03 5.08
05 5.08
04 5.08
06 5.08
07 5.08
08 5.08
09 5.08
11 5.08
10 5.08
12 5.08
13 5.08
14 5.08
15 5.08
17 5.08
16 5.08
18 5.08
19 5.08
20 5.08
21 5.08
23 5.08
22 5.08
00 6.08
01 6.08
02 6.08
03 6.08
05 6.08
06 6.08
07 6.08
08 6.08
10 6.08
12 6.08
14 6.08
13 6.08
15 6.08
16 6.08
17 6.08
18 6.08
20 6.08
19 6.08
21 6.08
22 6.08
23 6.08
00 7.08
02 7.08
01 7.08
03 7.08
04 7.08
05 7.08
06 7.08
08 7.08
07 7.08
09 7.08
10 7.08
11 7.08
12 7.08
14 7.08
13 7.08
15 7.08
16 7.08
17 7.08
18 7.08
20 7.08
19 7.08
21 7.08
22 7.08
23 7.08
00 8.08
02 8.08
01 8.08
03 8.08
04 8.08
06 8.08
07 8.08
08 8.08
09 8.08
10 8.08
11 8.08
12 8.08
13 8.08
14 8.08
15 8.08
16 8.08
17 8.08
18 8.08
19 8.08
20 8.08
21 8.08
22 8.08
23 8.08
00 9.08
01 9.08
02 9.08
03 9.08
04 9.08
05 9.08
06 9.08
07 9.08
08 9.08
09 9.08
10 9.08
11 9.08
12 9.08
13 9.08
14 9.08
15 9.08
16 9.08
17 9.08
18 9.08
19 9.08
20 9.08
21 9.08
22 9.08
23 9.08
00 10.08
01 10.08
02 10.08
03 10.08
04 10.08
05 10.08
06 10.08
07 10.08
08 10.08
09 10.08
10 10.08
11 10.08
12 10.08
13 10.08
14 10.08
15 10.08
16 10.08
17 10.08
18 10.08
19 10.08
20 10.08
21 10.08
22 10.08
23 10.08
00 11.08
01 11.08
02 11.08
03 11.08
Ветер
(напр.,м/с)
Видим. Явления Облачность Т
(С)
Тd
(С)
f
(%)
Тe
(С)
Тes
(С)
Комфортность P
(гПа)
Po
(гПа)
Тmin
(С)
Tmax
(С)
R
(мм)
R24
(мм)
S
(см)
ЮЗ 1 н/о н/о +19.4 +15.1 76 +22 +22 комфорт 1010.5 961.1
Ю 2 15 км ясно +21.5 +16.0 71 +25 +30 комфорт 1010.1 961.1 +17.2
З 2 15 км ясно +24.9 +15.9 57 +28 +36 жарко 1009.2 960.9
З 2 15 км ясно +26.7 +16.0 52 +30 +42 душно 1008.8 960.8
З 2 20 км ясно +28.0 +16.7 50 +32 +47 душно 1008.2 986.0
ЮЗ 3 20 км 1/1 600 м
[Cu hum]
+32.3 +15.8 37 +35 +48 очень
душно
1006.5 989.5
З 2 20 км ясно +30.7 +17.0 44 +34 +52 опасность
солнечного
удара
1007.2 959.9
ЮЗ 2 20 км 3/3 600 м
[Cu med, cong]
+33.3 +14.8 33 +35 +46 душно 1006.1 959.3
ЮЗ 2 20 км 3/3 600 м
[Cu med, cong]
+33.9 +14.1 30 +35 +44 очень
жарко
1005.2 958.5
ЮЗ 3 20 км 4/4 600 м
[Cu med, cong]
+34.5 +13.7 29 +35 +40 очень
жарко
1004.1 957.6
З 2 20 км 9/9 1000 м
[Cb calv]
+32.9 +13.7 31 +34 +34 очень
жарко
1004.1 957.3
ЮЗ 3 20 км гроза без осадков 9/9 1000 м
[Cb cap]
+28.2 +14.6 43 +30 +30 жарко 1006.1 958.5
В 2 20 км 8/8 1000 м
[Cb calv]
+30.5 +15.9 41 +33 +34 душно 1004.7 957.5
З 4 15 км гроза, ливневой дождь 9/9 1000 м
[Cb cap]
+24.8 +17.7 65 +29 +29 душно 1007.0 958.7 +34.6 0.2
В 2 н/о н/о +19.2 +18.7 97 +22 +22 комфорт 1010.0 960.7
С 2
{8}
н/о н/о +20.2 +18.8 92 +24 +24 комфорт 1010.8 961.6
СВ 2 н/о н/о +20.3 +18.1 87 +24 +24 комфорт 1010.5 961.3
СВ 1 н/о н/о +18.5 +17.9 96 +20 +20 1009.4 960.0
СВ 3 н/о н/о +19.1 +17.8 92 +21 +21 комфорт 1009.6 960.3
З 1 н/о н/о +18.1 +17.5 96 +19 +19 1009.4 959.9 15
штиль 0 н/о н/о +17.6 +17.6 100 +18 +18 1009.9 960.4
СВ 1 н/о н/о +17.3 +17.1 99 +18 +18 1009.7 960.1
СВ 1 н/о н/о +16.8 +16.8 100 +18 +18 1009.7 960.0
СВ 1 н/о н/о +16.9 +16.9 100 +18 +18 1010.1 960.4
СВ 1 н/о н/о +16.9 +16.9 100 +18 +18 1010.0 960.3
СВ 2 2000 м 9/9 600 м
[Sc]
+18.5 +17.7 95 +20 +20 1010.1 960.6 +16.5 13
СВ 2 15 км 9/9 300 м
[St]
+20.6 +17.9 85 +25 +26 комфорт 1010.5 961.3
ЮЗ 8
{12}
15 км 9/9 600 м
[St]
+20.0 +16.9 82 +22 +22 комфорт 1011.4 962.1
В 2-15
{15}
20 км 10/10 1000 м
[Sc]
+20.5 +13.3 63 +23 +23 комфорт 1011.7 962.5
В 2 15 км в посл. час дождь 10/10 600 м
[Sc]
+17.1 +15.8 92 +17 +17 1014.5 964.5
СВ 2 10 км слаб. дождь 10/10 1000 м
[Sc]
+17.6 +15.5 87 +18 +18 1014.2 964.3
В 2 5000 м гроза, ливневой дождь 10/10 1000 м
[Cb cap]
+16.7 +16.0 96 +17 +17 1015.6 965.5 3
СВ 3 2000 м слаб. дождь {гроза} 10/10 600 м
[Frnb]
+16.2 +14.7 91 +16 +16 1013.9 963.8
СВ 2 20 км в посл. час дождь 8/8 1000 м
[Sc]
+17.5 +14.3 81 +18 +20 1012.3 962.5
В 2 25 км {гроза, дождь} 5/5 1000 м
[Cu Sc]
+19.5 +15.6 78 +22 +24 комфорт 1011.6 962.2
ЮЗ 1 30 км 4/4 600 м
[Cu Sc]
+20.0 +15.1 73 +23 +24 комфорт 1012.1 962.8
ЮВ 2 30 км 4/4 1000 м
[Cu Sc]
+20.4 +15.1 72 +24 +25 комфорт 1011.9 962.6
СЗ 1 20 км {гроза, дождь} 4/4 1000 м
[Sc]
+18.6 +15.8 84 +21 +21 комфорт 1012.4 962.8 +21.1 9
СВ 2 н/о н/о +17.2 +15.6 90 +18 +18 1013.3 963.4
СВ 2 н/о н/о +16.5 +15.4 93 +17 +17 1013.2 963.3
С 2 н/о н/о +16.6 +15.5 93 +17 +17 1013.5 963.5
СВ 1 н/о н/о +15.7 +15.7 100 +16 +16 1013.2 963.1
В 2 н/о н/о +16.0 +15.7 98 +16 +16 1013.5 963.5
С 2 н/о н/о +15.8 +15.8 100 +16 +16 1013.6 963.5 11
В 2 н/о н/о +15.7 +15.7 100 +16 +16 1013.4 963.3
СВ 1 н/о н/о +15.9 +15.7 99 +17 +17 1013.7 963.6
СВ 1 н/о н/о +15.7 +15.7 100 +16 +16 1013.8 963.7
СВ 2 н/о н/о +16.0 +16.0 100 +16 +16 1013.6 963.6
В 2 6000 м слаб. дождь 10/10 300 м
[Frnb]
+16.6 +15.8 95 +17 +17 1013.7 963.7 +15.6 6
СВ 2 4000 м слаб. дождь 10/10 300 м
[Frnb]
+17.0 +15.9 93 +17 +17 1013.4 963.5
В 2 6000 м слаб. дождь 10/10 300 м
[Frnb]
+17.3 +16.0 92 +18 +18 1013.5 963.6
Ю 1 10 км {дождь} 8/8 300 м
[Cu Sc]
+20.2 +15.9 76 +24 +28 комфорт 1012.9 963.6
Ю 2 10 км {дождь} 9/9 600 м
[Cu Sc]
+21.6 +16.9 75 +26 +27 душно 1013.0 963.9 0.8
Ю 4 10 км слаб. дождь 10/10 300 м
[Frnb]
+17.4 +15.7 90 +17 +17 1015.1 965.1
Ю 4 10 км в посл. час дождь 10/10 600 м
[Cu Sc]
+19.5 +18.0 91 +22 +22 комфорт 1013.7 964.2
Ю 2 10 км слаб. дождь 10/10 300 м
[Frnb]
+16.9 +15.5 91 +17 +17 1015.8 965.7
СЗ 1 30 км в посл. час дождь 10/10 300 м
[St]
+17.3 +15.2 87 +18 +18 1015.5 965.5
ЮЗ 1 2000 м гроза, ливневой дождь 10/10 300 м
[Cb cap]
+17.5 +16.1 91 +19 +19 1015.9 965.9
С 3 1000 м гроза, ливневой дождь 10/10 300 м
[Cb cap]
+16.8 +16.1 96 +17 +17 1015.8 965.7 +22.2 9
СВ 2 н/о н/о +16.0 +16.0 100 +16 +16 1015.5 965.3
С 1 н/о н/о +16.0 +16.0 100 +17 +17 1015.9 965.7
ЮЗ 1 н/о н/о +16.0 +16.0 100 +17 +17 1016.7 966.5
ЮВ 2 н/о н/о +15.8 +15.8 100 +16 +16 1016.5 966.3
СВ 2 н/о н/о +15.8 +15.8 100 +16 +16 1015.8 965.6
В 1 н/о н/о +15.9 +15.9 100 +17 +17 1016.0 965.8 3
ЮЗ 1 н/о н/о +15.7 +15.7 100 +16 +16 1016.3 966.0
штиль 0 н/о н/о +15.9 +15.9 100 +16 +16 1016.3 966.0
С 1 н/о н/о +15.8 +15.8 100 +16 +16 1015.9 965.7
С 1 н/о н/о +15.7 +15.7 100 +16 +16 1016.2 966.0
В 1 н/о н/о +15.6 +15.6 100 +16 +16 1015.8 965.5
СВ 2 2000 м слаб. дождь 10/10 300 м
[Frnb]
+16.0 +15.3 96 +16 +16 1016.1 965.8 +15.5 10
С 1 3000 м слаб. дождь 10/10 300 м
[Frnb]
+16.8 +15.7 93 +18 +18 1015.9 965.8
СВ 2 4000 м слаб. дождь 10/10 300 м
[Frnb]
+16.5 +15.5 94 +17 +17 1015.8 965.6
СЗ 1 3000 м слаб. дождь 10/10 300 м
[Frnb]
+17.5 +16.5 94 +19 +19 1016.1 966.1
Ю 1 2000 м слаб. дождь 10/10 300 м
[Frnb]
+17.7 +16.9 95 +19 +19 1016.2 966.2
штиль 0 5000 м слаб. дождь 10/10 300 м
[Frnb]
+17.7 +16.7 94 +18 +18 1016.5 966.5
З 1 5000 м в посл. час дождь 10/10 300 м
[St]
+18.2 +16.6 90 +20 +20 1016.4 966.5 4
Ю 2 3000 м слаб. дождь 10/10 300 м
[Frnb]
+18.4 +17.8 96 +20 +20 1015.9 966.1
штиль 0 4500 м дымка 10/10 50 м
[St]
+18.7 +17.0 90 +20 +20 1016.4 966.6
СЗ 1 8000 м гроза, ливневой дождь 10/10 300 м
[Cb cap]
+18.1 +17.2 94 +19 +19 1015.3 965.5
В 1 8000 м в посл. час гроза {дождь} 6/6 300 м
[Cu Sc]
+17.8 +16.9 94 +19 +20 1015.2 965.3
ЮЗ 1 8000 м дымка 9/9 300 м
[Cu Sc]
+18.3 +17.1 93 +20 +20 1014.9 965.1
штиль 0 10 км {гроза, дождь} 6/6 1000 м
[Sc]
+18.0 +16.4 90 +18 +18 1014.9 965.1 +18.8 5
штиль 0 н/о н/о +16.5 +16.5 100 +16 +16 1015.1 965.1
ЮЗ 1 н/о н/о +17.0 +17.0 100 +18 +18 1015.0 965.1
СВ 1 н/о н/о +16.8 +16.8 100 +18 +18 1015.2 965.2
С 3 н/о н/о +17.1 +17.1 100 +17 +17 1015.0 965.1
СВ 1 н/о н/о +17.4 +17.4 100 +18 +18 1015.1 965.2
СВ 2 н/о н/о +17.6 +17.6 100 +18 +18 1015.1 965.3 3
В 2 н/о н/о +17.2 +17.2 100 +17 +17 1015.1 965.2
штиль 0 н/о н/о +17.4 +17.4 100 +17 +17 1015.2 965.4
СВ 1 н/о н/о +16.8 +16.8 100 +18 +18 1015.0 965.0
С 1 н/о н/о +16.9 +16.9 100 +18 +18 1014.9 965.0
СВ 1 10 км 9/9 300 м
[St]
+17.6 +16.6 94 +19 +19 1015.8 965.8 +16.3 3
СВ 1 10 км 10/10 300 м
[St]
+18.5 +17.1 92 +20 +20 1015.6 965.8
С 1 10 км в посл. час дождь 10/10 300 м
[Frnb]
+18.7 +17.2 91 +21 +21 комфорт 1015.5 965.8
З 1 2000 м слаб. дождь 10/10 1000 м
[Sc]
+19.0 +18.2 95 +22 +22 комфорт 1015.6 965.9
ЮЗ 1 8000 м в посл. час дождь 8/8 1000 м
[Sc]
+19.8 +18.3 91 +24 +28 комфорт 1015.3 965.8
З 1 10 км 6/6 1000 м
[Sc]
+21.8 +18.2 80 +27 +35 душно 1014.6 965.5
СВ 3 10 км {дождь} 5/5 600 м
[Cu Sc]
+21.8 +17.9 79 +26 +33 душно 1014.4 965.3 2
С 2 10 км 5/5 600 м
[Cu Sc]
+24.6 +17.8 66 +29 +35 душно 1013.5 964.9
ЮВ 2 2000 м гроза, ливневой дождь 10/10 600 м
[Cb cap]
+20.3 +19.4 95 +25 +25 комфорт 1015.2 965.8
В 1 3000 м в посл. час гроза {дождь} 8/8 600 м
[Cu Sc]
+20.4 +19.5 95 +26 +27 душно 1013.9 964.5
СВ 1 3000 м дымка 8/8 600 м
[Cu Sc]
+20.6 +19.4 93 +26 +26 душно 1013.6 964.3
ЮЗ 1 3000 м дымка 8/8 600 м
[Cu Sc]
+20.7 +19.4 92 +26 +26 душно 1014.2 964.9
З 1 5000 м дымка {гроза, дождь} 8/8 1000 м
[Sc]
+20.4 +18.7 90 +25 +25 комфорт 1014.3 964.9 +24.7 6
В 1
{8}
н/о н/о +18.4 +17.3 93 +20 +20 1015.8 966.0
СВ 2 н/о н/о +18.4 +16.4 88 +20 +20 1015.7 965.9
ЮВ 2 н/о н/о +17.9 +16.9 94 +18 +18 1016.7 966.8
С 1 н/о н/о +17.5 +17.3 99 +19 +19 1017.2 967.2
штиль 0 н/о н/о +17.0 +16.9 99 +17 +17 1016.6 966.6
штиль 0 н/о н/о +16.9 +16.9 100 +17 +17 1016.6 966.6 3
СВ 1 н/о н/о +16.5 +16.5 100 +17 +17 1016.4 966.3
В 1 н/о н/о +16.3 +16.3 100 +17 +17 1016.2 966.1
СВ 1 н/о н/о +16.0 +16.0 100 +17 +17 1016.2 966.0
СВ 1 н/о н/о +15.6 +15.6 100 +16 +16 1016.2 965.9
СВ 2 н/о н/о +16.3 +16.3 100 +16 +16 1016.3 966.1
СВ 2 10 км 8/8 600 м
[Cu Sc]
+17.7 +15.8 89 +18 +19 1016.6 966.6 +15.6 3
СВ 3 10 км 8/8 600 м
[Cu Sc]
+18.6 +15.9 84 +20 +21 1016.4 966.6
СВ 2 10 км 4/4 600 м
[Cu Sc]
+21.6 +16.6 73 +25 +33 комфорт 1015.6 966.4
В 3 15 км 4/3 600 м
[Cu Sc Ci fib]
+23.3 +16.8 67 +28 +37 душно 1014.9 966.0
В 2 15 км 4/4 600 м
[Cu Sc]
+24.1 +17.4 66 +28 +38 душно 1014.6 965.9
С 2 15 км 5/4 600 м
[Cu med, cong Ci fib]
+26.7 +18.2 60 +31 +41 душно 1013.2 965.0
С 3 15 км 5/4 600 м
[Cu Sc Ci fib]
+28.4 +16.4 48 +32 +39 душно 1012.6 964.7
В 5 15 км 6/6 600 м
[Cu Sc]
+26.7 +17.2 56 +31 +33 душно 1012.9 964.7
СВ 2 15 км гроза без осадков 6/5 600 м
[Cb cap Ci fib]
+24.5 +16.8 62 +28 +32 душно 1013.2 964.6
В 3 15 км гроза без осадков 6/6 600 м
[Cb cap]
+24.4 +15.2 56 +27 +29 жарко 1013.2 964.6
СВ 3 20 км гроза без осадков 8/8 600 м
[Cb cap]
+22.0 +15.2 65 +26 +26 душно 1013.6 964.5
С 2 20 км в посл. час гроза 8/4 600 м
[Cu Sc Cs]
+20.7 +15.2 71 +24 +24 комфорт 1014.0 964.7
С 3 20 км {гроза, дождь} 5/3 600 м
[Cu Sc Ci fib]
+19.9 +15.4 75 +22 +22 комфорт 1014.2 964.7 +28.5 0.0
С 2 н/о н/о +18.9 +16.3 85 +21 +21 комфорт 1015.1 965.5
С 2 н/о н/о +17.9 +16.9 94 +18 +18 1015.5 965.7
С 1 н/о н/о +17.1 +17.1 100 +18 +18 1015.6 965.6
штиль 0 н/о н/о +16.7 +16.7 100 +17 +17 1015.7 965.6
штиль 0 н/о н/о +16.2 +16.2 100 +16 +16 1015.8 965.6
СВ 1 н/о н/о +16.0 +15.9 99 +17 +17 1016.0 965.8 0.1
В 1 н/о н/о +14.6 +14.6 100 +15 +15 1016.4 965.9
штиль 0 н/о н/о +14.8 +14.8 100 +14 +14 1016.4 966.0
штиль 0 н/о н/о +14.6 +14.6 100 +14 +14 1016.8 966.3
штиль 0 н/о н/о +14.4 +14.4 100 +14 +14 1017.1 966.6
В 1 н/о н/о +14.4 +14.4 100 +15 +15 1017.3 966.7
Ю 1 800 м туман ясно +16.0 +14.7 92 +17 +22 1017.1 966.8 +14.0
ЮВ 1 15 км в посл. час туман 3/3 600 м
[Sc]
+18.7 +16.4 86 +21 +27 комфорт 1016.6 966.8
Ю 1 20 км {туман} 1/1 600 м
[Cu Sc]
+22.0 +15.7 67 +26 +38 душно 1015.8 966.6
ЮЗ 1 20 км {туман} 1/1 600 м
[Cu hum]
+24.8 +16.5 60 +28 +44 жарко 1014.8 966.2
СВ 2 20 км 3/3 600 м
[Cu hum]
+27.0 +16.7 53 +31 +43 душно 1014.0 965.8
СВ 2 30 км 3/3 600 м
[Cu med, cong]
+28.8 +15.5 44 +32 +44 душно 1013.3 965.4
С 1 30 км {туман} 3/3 600 м
[Cu med, cong]
+30.0 +15.0 40 +32 +45 жарко 1012.6 965.0
С 3 30 км 3/3 600 м
[Cu med, cong]
+30.5 +14.5 38 +33 +40 душно 1012.1 964.6
С 2 30 км 4/4 600 м
[Cu med, cong]
+30.2 +13.5 36 +32 +37 жарко 1012.1 964.5
С 2 30 км 4/3 600 м
[Cu med, cong Ci fib]
+29.9 +14.1 38 +32 +35 жарко 1012.1 964.5
С 3 30 км 4/4 600 м
[Cb calv]
+29.0 +15.2 43 +32 +32 душно 1012.3 964.5
СВ 2 30 км 4/3 600 м
[Cu Sc Ci sp]
+27.2 +16.0 50 +30 +30 душно 1013.1 965.0
СВ 1 30 км 1/1 600 м
[Cu Sc]
+24.3 +15.7 59 +27 +27 жарко 1013.9 965.2 +30.8
СВ 2 н/о н/о +21.8 +16.8 73 +26 +26 душно 1015.4 966.2
СВ 2 н/о н/о +20.6 +17.1 80 +25 +25 комфорт 1015.8 966.4
СВ 2 н/о н/о +19.8 +16.8 83 +23 +23 комфорт 1016.1 966.5
СВ 3 н/о н/о +19.1 +16.4 84 +21 +21 комфорт 1016.5 966.8
СВ 2 н/о н/о +18.3 +16.5 89 +19 +19 1016.9 967.0
СВ 1 н/о н/о +17.5 +15.7 89 +19 +19 1017.0 967.0
С 1 н/о н/о +16.9 +15.8 93 +18 +18 1017.2 967.1
штиль 0 н/о н/о +15.7 +15.7 100 +15 +15 1017.6 967.3
штиль 0 н/о н/о +15.4 +15.4 100 +15 +15 1017.9 967.5
Местоположение метеостанции Вране (Черногория): широта 42.55 долгота 21.92 высота над уровнем моря 434 м.
В архиве по умолчанию представлена погода во Вране за последнюю неделю. Архивные данные за месяц целиком и за предыдущие месяцы, начиная с января 2011 года, Вы можете получить, выбрав интересующий диапазон дат из раскрывающегося списка и нажав кнопку "Найти!".
*Определитесь, кто Вы:
Внимание! Время в таблицах - всемирное. Для получения местного времени необходимо прибавить поправку, которая равна 1 ч.
Смотрите также архив погоды в соседних городах и на ближайших метеорологических станциях:
Партнеры нашего сайта:      
Пояснения к столбцам:
  • Ветер - указаны скорость ветра в м/с - средняя за 10 мин, порывы в срок и между сроками (в фигурных скобках) и направление, откуда дует ветер: С - северный,
  • СВ - северо-восточный, В - восточный, ЮВ - юго-восточный, Ю - южный, ЮЗ - юго-западный, З - западный, СЗ - северо-западный.
  • Видимость - горизонтальная дальность видимости в метрах или километрах. При видимости от 1 до 10 км при отсутствии осадков обычно наблюдается дымка, при ухудшении видимости до 1 км и менее - туман. В сухую погоду видимость может ухудшаться дымом, пылью или мглою.
  • Явления - указаны атмосферные явления, наблюдавшиеся в срок или в последний час перед сроком; фигурными скобками обозначены явления, наблюдавшиеся между сроками (за 1-3 часа до срока); квадратными скобками обозначены град или гололедные отложения с указанием их диаметра в мм.
  • Облачность - указаны через наклонную черту общая и нижняя облачность в баллах и высота нижней границы облаков в метрах; квадратными скобками обозначены формы облаков: Ci - перистые, Cs - перисто-слоистые, Cc - перисто-кучевые, Ac - высококучевые, As - высокослоистые, Sc - слоисто-кучевые, Ns - слоисто-дождевые, Cu - кучевые, Cb - кучево-дождевые. Подробнее классификацию облаков см. в Атласе облаков (PDF).
  • T - Температура воздуха - температура, измеренная на высоте 2 м над землей.
  • Td - Температура точки росы - температура, при понижении до которой содержащийся в воздухе водяной пар достигнет насыщения.
  • f - Относительная влажность воздуха - влажноcть воздуха, измеренная на высоте 2 м над землей.
  • Te - Эффективная температура - температура, которую ощущает одетый по сезону человек в тени. Характеристика душности погоды. При расчете учитывается влияние влажности воздуха и скорости ветра на теплоощущения человека.
  • Tes - Эффективная температура на солнце - температура, которую ощущает человек, с поправкой на солнечный нагрев. Характеристика знойности погоды. Зависит от высоты солнца над горизонтом, облачности и скорости ветра. Ночью, в пасмурную погоду, а также при ветре 12 м/с и более поправка равна нулю.
  • P - Атмосферное давление - приведенное к уровню моря атмосферное давление.
  • Po - Атмосферное давление - измеренное на уровне метеостанции атмосферное давление.
  • Tmin - Минимальная температура - минимум температуры воздуха на высоте 2 м над землей.
  • Tmax - Максимальная температура - максимум температуры воздуха на высоте 2 м над землей.
  • R - Количество осадков - Количество выпавших осадков за период времени, мм. При наведении курсора мыши на число - период времени, за который выпало указанное количество осадков.
  • R24 - Количество осадков - Количество выпавших осадков за 24 часа, мм.
  • S - Снежный покров - Высота снежного покрова, см. При наведении курсора мыши на число - состояние снежного покрова и степень покрытия местности в баллах.